Regional Weather Roundup
Issued by NWS Wakefield, VA

Home | Current Version | Previous Version | Graphics & Text | Print | Product List | Glossary On
Versions: 1 2 3 4 5 6 7 8 9 10 11 12 13 14 15 16 17 18 19 20 21 22 23 24 25 26 27 28 29 30 31 32 33 34 35 36 37 38 39 40 41 42 43 44 45 46 47 48 49 50
000
ASUS41 KAKQ 280510
RWRAKQ

REGIONAL WEATHER ROUNDUP
NATIONAL WEATHER SERVICE WAKEFIELD VA
1200 AM EST SUN DEC 28 2014

Note: "fair" indicates few or no clouds below 12,000 feet with no
significant weather and/or obstructions to visibility. * = Denotes
station may not report precipitation (e.g., rain,snow,etc.),
thunder or fog.

VAZ042-051-052>054-056-280600-
NORTHERN VIRGINIA

CITY           SKY/WX    TMP DP  RH WIND       PRES   REMARKS
WASH NATIONAL  CLOUDY    46  36  68 S5        30.08F
DULLES         MOCLDY    39  33  79 S3        30.06F
FORT BELVOIR   MOCLDY    37  34  89 NW2       30.07F
QUANTICO       MOCLDY    41  35  79 SW3       30.09F
FREDERICKSBRG* MOCLDY    43  39  86 CALM      30.08F
STAFFORD*      MOCLDY    41  34  76 CALM      30.12F
WARRENTON      CLOUDY    38  38 100 CALM      30.06F
CULPEPER*      PTCLDY    39  36  87 CALM      30.07F
MANASSAS*      CLOUDY    36  36 100 CALM      30.07F
LEESBURG*      PTCLDY    41  34  75 S6        30.06F
WINCHESTER     CLOUDY    48  25  40 SW5       30.02F
FRONT ROYAL*   MOCLDY    48  30  49 S7        30.02F
LURAY*         MOCLDY    52  32  46 S5        30.04F
$$

VAZ048-049-060>072-079>083-280600-
CENTRAL AND SOUTH CENTRAL VIRGINIA

CITY           SKY/WX    TMP DP  RH WIND       PRES   REMARKS
RICHMOND       CLOUDY    50  39  66 S6        30.12F
CHESTERFIELD*  CLOUDY    52  32  46 S7        30.12F
PETERSBURG*    CLOUDY    53  39  59 S5        30.12F
HANOVER        CLOUDY    51  38  60 S8        30.11F
TAPPAHANNOCK*  CLOUDY    51  35  54 S6        30.11F
QUINTON*       CLOUDY    49  39  66 SE3       30.11F
CHARLOTTSVILLE CLOUDY    50  34  54 S7        30.07F
GORDONSVILLE*  MOCLDY    43  37  80 SW3       30.08F
ORANGE*        MOCLDY    46  37  71 S5        30.09F
LOUISA*        CLOUDY    52  39  62 CALM      30.08F
BUMPASS*       MOCLDY    51  38  60 SW6       30.10S
FARMVILLE*     CLOUDY    54  39  57 S8        30.10F
CREWE*         CLOUDY    54  36  50 SW5       30.13S
FORT PICKETT*  CLOUDY    50  38  64 SW8       30.13F
CHASE CITY*    CLOUDY    52  42  69 CALM      30.14F
CLARKSVILLE*   CLOUDY    48  39  71 S5        30.14F
SOUTH HILL*    CLOUDY    47  39  72 S6        30.21F
LAWRENCEVILLE* CLOUDY    48  40  73 CALM      30.13F
EMPORIA*       MOCLDY    45  37  76 CALM      30.17F
$$

VAZ088>098-280600-
SOUTHEAST VIRGINIA

CITY           SKY/WX    TMP DP  RH WIND       PRES   REMARKS
NORFOLK        MOCLDY    49  38  65 S7        30.14F
VIRGINIA BEACH MOCLDY    50  40  68 S7        30.14F
NORFOLK NAVAL  CLOUDY    53  39  59 S7        30.16F
WEST POINT*    CLOUDY    52  38  59 S6        30.13F
SALUDA*        FAIR      51  38  62 S9        30.11F
NEWPORT NEWS   MOCLDY    53  39  59 S6        30.14F
LANGLEY AFB    CLOUDY    50  40  69 S6        30.13F
FORT EUSTIS    CLOUDY    50  49  96 S3        30.13F
WILLIAMSBURG*  CLOUDY    52  43  71 S7        30.14F
HR EXEC AP*    MOCLDY    46  37  71 S5        30.17F
FRANKLIN*      MOCLDY    46  39  76 S6        30.16S
WAKEFIELD      MOCLDY    50  39  66 S3        30.15F
$$

VAZ020-022-025-037-045-280600-
WEST CENTRAL AND SOUTHWEST VIRGINIA

CITY           SKY/WX    TMP DP  RH WIND       PRES   REMARKS
STAUNTON*      CLOUDY    48  30  50 SW3       30.08F
WAYNESBORO*    MOCLDY    44  27  51 CALM      30.07F
HOT SPRINGS VA CLOUDY    51  21  30 SW9       30.06F
LYNCHBURG      CLOUDY    50  37  61 S6        30.11F
DANVILLE       CLOUDY    51  38  60 S6        30.15S
SOUTH BOSTON*  CLOUDY    51  37  60 S5        30.14S
MARTINSVILLE   MOCLDY    52  36  54 S3        30.15F
ROANOKE        CLOUDY    50  35  56 CALM      30.12F
BLACKSBURG     PTCLDY    46  33  60 CALM      30.14F
DUBLIN*        PTCLDY    46  37  69 CALM      30.12F
MARION*        CLEAR     42  30  62 CALM      30.14F
HILLSVILLE*    MOCLDY    48  33  56 S8        30.11F
RICHLANDS*     CLOUDY    51  17  25 CALM      30.10S
WISE*          CLOUDY    54  21  28 S9        30.09F
ABINGDON*      CLOUDY    47  38  72 CALM      30.11F
$$

MDZ021>025-VAZ099-100-280600-
SOUTHERN MARYLAND AND THE DELMARVA PENINSULA

CITY           SKY/WX    TMP DP  RH WIND       PRES   REMARKS
PATUXENT RIVER CLOUDY    50  37  61 VRB5      30.09F
BAY BRIDGE APT   N/A     45  37  76 S6        30.08F
LEONARDTOWN    CLOUDY    50  36  57 SW5       30.10F
DOVER          MOCLDY    42  38  88 S8        30.07F
GEORGETOWN     MOCLDY    45  38  76 S7        30.12F
EASTON         MOCLDY    47  41  81 CALM      30.13F
CAMBRIDGE      CLOUDY    45  39  81 S5        30.10F
SALISBURY      CLOUDY    46  39  76 S6        30.12F
OCEAN CITY     MOCLDY    48  41  76 SW9       30.13F
WALLOPS ISLAND PTCLDY    45  42  89 SW8       30.14F
ACCOMACK*      MOCLDY    46  37  71 S5        30.12F
$$

NCZ012>017-030>032-280600-
NORTH CENTRAL AND EASTERN NORTH CAROLINA

CITY           SKY/WX    TMP DP  RH WIND       PRES   REMARKS
ROANOKE RAPIDS CLOUDY    43  37  81 CALM      30.16F
RALEIGH        CLOUDY    51  38  60 CALM      30.18F
ELIZABETH CITY MOCLDY    51  41  68 S6        30.17F
AHOSKIE*       CLOUDY    44  39  83 CALM      30.18F
EDENTON*         N/A     47  43  84 SW7       30.19F
CURRITUCK*     MOCLDY    48  39  71 S5        30.18F
KILL DEVIL HLS MOCLDY    49  43  78 SW3       30.17F
MANTEO         MOCLDY    48  43  81 S5        30.18F
CAPE HATTERAS  PTCLDY    51  50  96 W5        30.20F
TARBORO*       CLOUDY    49  41  72 S3        30.19F
GOLDSBORO      CLOUDY    50  49  97 CALM      30.18F
WASHINGTON     MOCLDY    49  43  81 SW3       30.19F
GREENVILLE     CLOUDY    50  43  76 SW8       30.19F
NEW BERN       MOCLDY    46  42  86 S3        30.21F
WILMINGTON     MOCLDY    46  44  93 CALM      30.21F
$$

VAZ048-280600-
ELSEWHERE

CITY           SKY/WX    TMP DP  RH WIND       PRES   REMARKS
HARRISBURG PA  MOCLDY    42  33  70 E8        30.03F
BALTIMORE      MOCLDY    38  33  82 CALM      30.06F
ANNAPOLIS      PTCLDY    43  39  86 SE3       30.07F
ANDREWS AFB    MOCLDY    46  37  70 S8        30.07F
PHILADELPHIA   MOCLDY    42  36  79 CALM      30.09F
HENDERSON NC   CLOUDY    49  38  63 SW7       30.16F
GREENSBORO     CLOUDY    52  37  56 SW8       30.15F
ROCKY MOUNT    CLOUDY    46  41  82 CALM      30.18F
$$

VAZ100-280600-
MARINE

STATION/POSITION TIME  TEMP    WIND        PRES    WAVE   SWELL
                       AIR SEA DIR/SP/G            HT/PER HT/PER
                 (UTC) (F)     (DEG/KT/KT) (MB)    (FT/S) (FT/S)
CAPE MAY NJ      0500   46                   N/A
LEWES DE         0500   47                   N/A
15NM E FENWICK I 0500   47 45              1019.9F   3/14
OCEAN-CITY-INLET 0500   47                   N/A
WACHAPREAGUE VA  0500   47                   N/A
THOMAS POINT MD  0500   46 43  170/ 11/ 11 1019.6F
GOOSES REEF MD   0500   46     VRB  8/ 10  1018.3F
COVE POINT MD    0500   51                   N/A
SOLOMONS ISLAND  0400      44                N/A
BISHOPS HEAD MD  0500   47                   N/A
PINEY POINT MD   0400          210/  5/  5   N/A
POTOMAC MD       0500   47     210/  4/  6 1018.9F
CAMBRIDGE MD     0500   45                   N/A
LEWISETTA VA     0500   52                   N/A
RAPPAHANNOCK LGT 0400          170/ 11/ 12 1021.4F
STINGRAY PT      0500   47     200/  8/ 10 1020.7F
YORK RVR RNG VA  0500   48                   N/A
YORKTOWN VA      0500   52                   N/A
JAMESTOWN VA     0500   49     150/  4/  4   N/A
DOMINION TERM VA 0500   50                   N/A
KIPTOPEKE VA     0400      50  170/  7/  9   N/A
CHES BAY BRIDGE  0500   49                   N/A
CAPE HENRY VA    0500   49                   N/A
CHESAPEAKE LGHT  0400   49     210/ 19/ 20 1022.6F
WILLOUBY STN VA  0500   50                   N/A
S CRANEY ISL VA  0400          190/  5/  7 1021.4F
CAPE HENRY BUOY  0500      47                N/A     3/13   2/13
1ST LANDING BUOY 0500   49     180/  8/  8 1020.8F
CAPE CHARLES BUO 0500      48                N/A     3/14   3/14
64NM E OF VA BCH 0500   53 53  230/ 10/ 12 1021.7F   4/14   3/14
DUCK PIER NC     0500   51                   N/A
44100 DUCK FRF   0500      51                N/A     3/15   3/15
44056 DUCK FRF   0500      48                N/A     3/14   3/14
OREGON INLET NC  0500   51                   N/A
HATTERAS NC      0500   53                   N/A
DIAMOND SHLS NC  0500   66                 1023.3F   4/15
CAPE LOOKOUT NC  0400   59     200/  5/  5 1023.5F
$$


USA.gov is the U.S. government's official web portal to all federal, state and local government web resources and services.